Location: Corte Bragagnani
(45.3000°N, 11.1000°E)
Time: 22:37:37
(UTC+00:00)

COSMOS 2406 - Pass Details

Date: 09 April 2020
Orbit: 842 x 865 km, 71.0° (Epoch: 26 May)

Event Time Altitude Azimuth Distance (km) Brightness Sun altitude
Exits shadow 20:55:04 32° 227° (SW) 1,414 4.3 -27.9°
Maximum altitude 20:57:41 65° 299° (WNW) 933 3.5 -28.2°
Drops below altitude 10° 21:03:22 10° 21° (NNE) 2,491 6.0 -28.9°
Sets 21:05:52 0° 24° (NNE) 3,434 6.7 -29.1°
